date,batt_volt,AirTemp_C,Solar_kW,RH,Manual_BP,StationID,WS_ms,PTemp,WS_15min_max,Prog_Sig,Solar_Raw,Bar_mbar,Solar_MJ,Max_WS_2min,Pressure_Raw,Rain_mm,WD_15min_ave,Max_AirTemp_1min,WindDir,WS_15min_med,WS_15min_ave,Elevation_Correction
2023-04-01T00:13:23Z,13.60586,1.412815,0.0,69.92656,0,1156,2.0972,1.201698,3.4692,43690,0.0,1020.878,0.0,2.176,1019.077,0,271.174954572,1.515,256.4336,2.0972,2.12141176353,1.80078
2023-04-01T00:28:23Z,13.60646,1.588444,0.0,69.1217,0,1156,0.5292,1.138439,3.0184,43690,0.0,1020.878,0.0,2.293,1019.077,0,271.194772212,1.554,294.6753,1.8228,1.83375293941,1.80078
2023-04-01T00:43:23Z,13.61285,1.488491,0.0,68.71743,0,1156,1.2936,1.07518,2.2736,43690,0.0,1020.878,0.0,1.607,1019.077,0,288.239382621,1.521,298.2082,1.1956,1.21531528294,1.80078
2023-04-01T00:58:24Z,13.61303,1.422348,0.0,69.73894,0,1156,2.9204,0.9893265,2.9204,43690,0.0,1020.878,0.0,2.92,1019.077,0,288.003829308,1.523,271.6556,1.7052,1.71015764235,1.80078
2023-04-01T01:13:24Z,13.61432,1.390041,0.0,70.79429,0,1156,1.8228,0.9893265,2.9596,43690,0.0,1021.966,0.0,2.568,1020.166,0,270.908895546,1.526,285.3594,1.617,1.64582352471,1.80078
2023-04-01T01:28:20Z,13.61962,1.423897,0.0,72.08438,0,1156,2.0384,0.9689942,2.6068,43690,0.0,1021.966,0.0,1.98,1020.166,0,274.018429298,1.594,274.5104,1.5484,1.53807810592,1.80078
2023-04-01T01:43:21Z,13.61335,1.357208,0.0,73.71634,0,1156,1.7248,0.9689942,2.6852,43690,0.0,1021.966,0.0,2.117,1020.166,0,264.750143055,1.425,222.4451,1.7248,1.71534588235,1.80078
2023-04-01T01:58:22Z,13.6195,1.661766,0.0,75.44617,0,1156,2.254,0.9689942,3.5868,43690,0.0,1021.966,0.0,3.254,1020.166,0,244.885508082,1.695,241.7014,2.009,2.12083529412,1.80078
2023-04-01T02:13:22Z,13.61393,2.066891,0.0,74.76294,0,1156,3.1752,1.095512,4.7824,43690,0.0,1022.158,0.0,3.842,1020.357,0,240.485833075,2.135,242.9656,3.724,3.74106352941,1.80078
2023-04-01T02:28:21Z,13.60597,2.370079,0.0,74.28344,0,1156,4.5472,1.244621,4.8216,43690,0.0,1022.158,0.0,4.626,1020.357,0,219.931558199,2.37,225.0422,3.8122,3.83329882353,1.80078
2023-04-01T02:43:23Z,13.60508,2.193932,0.0,74.8153,0,1156,3.4692,1.393734,5.2528,43690,0.0,1022.158,0.0,4.39,1020.357,0,204.724855147,2.432,178.4206,3.8416,3.87630352941,1.80078
2023-04-01T02:58:22Z,13.60464,1.989906,0.0,71.38624,0,1156,3.92,1.456993,4.41,43690,0.0,1022.158,0.0,4.077,1020.357,0,184.127510133,1.99,192.3012,3.8416,3.84298352941,1.80078
2023-04-01T03:13:27Z,13.60471,1.922142,0.0,66.76992,0,1156,3.2536,1.456993,4.3512,43690,0.0,1021.114,0.0,3.842,1019.314,0,189.269337609,1.99,179.6729,3.5084,3.5476,1.80078
2023-04-01T03:29:08Z,13.59933,1.854496,0.0,61.1354,0,1156,3.43,1.499916,4.2924,43690,0.0,1021.114,0.0,4.292,1019.314,0,188.044106231,1.957,192.9054,3.2732,3.24504727273,1.80078
2023-04-01T03:44:04Z,13.59925,1.922215,0.0,57.60486,0,1156,3.7436,1.542843,4.1944,43690,0.0,1021.114,0.0,3.92,1019.314,0,192.793272964,2.024,199.3155,3.626,3.60936969697,1.80078
2023-04-01T03:59:08Z,13.59383,1.751915,0.0,59.74258,0,1156,1.9992,1.58577,4.3904,43690,0.0,1021.114,0.0,3.371,1019.314,0,192.329283696,1.888,214.7131,3.2732,3.04407485263,1.80078
2023-04-01T04:14:06Z,13.59401,1.752869,0.0,59.74394,0,1156,3.8416,1.649029,4.508,43690,0.0,1020.704,0.0,3.959,1018.903,0,191.820243146,1.753,187.9174,3.1556,3.14453176471,1.80078
2023-04-01T04:29:04Z,13.59365,1.649975,0.0,61.64332,0,1156,4.0964,1.671619,4.7432,43690,0.0,1020.704,0.0,4.449,1018.903,0,191.140068439,1.684,194.1788,3.9984,4.01696235294,1.80078
2023-04-01T04:44:09Z,13.59407,1.785698,0.0,58.04512,0,1156,5.0764,1.712288,5.4096,43690,0.0,1020.704,0.0,5.351,1018.903,0,197.218193812,1.752,190.0332,4.4296,4.47292631579,1.80078
2023-04-01T04:59:08Z,13.59361,1.616066,0.0,57.02691,0,1156,4.5668,1.798138,5.586,43690,0.0,1020.704,0.0,5.096,1018.903,0,190.597599068,1.718,187.9128,4.41,4.45577176471,1.80078
2023-04-01T05:14:06Z,13.58802,1.581825,0.0,55.36323,0,1156,3.6456,1.861397,5.6644,43690,0.0,1019.889,0.0,4.332,1018.088,0,192.198700054,1.785,205.1433,4.5276,4.49531764706,1.80078
2023-04-01T05:29:05Z,13.58802,1.717602,0.0,56.48339,0,1156,4.1944,1.883991,4.3904,43690,0.0,1019.889,0.0,4.234,1018.088,0,190.399153625,1.752,184.1518,3.7828,3.70220941176,1.80078
2023-04-01T05:44:10Z,13.59355,1.513935,0.0,55.66873,0,1156,3.8024,1.904324,4.7628,43690,0.0,1019.889,0.0,4.371,1018.088,0,194.433411398,1.752,190.6348,4.018,4.00940350877,1.80078
2023-04-01T05:59:08Z,13.59355,1.615768,0.0,54.20912,0,1156,3.4888,1.883991,4.7824,43690,0.0,1019.889,0.0,4.057,1018.088,0,192.964890172,1.65,197.8409,3.8024,3.82845647059,1.80078
2023-04-01T06:14:06Z,13.59355,1.446045,0.0,55.499,0,1156,3.234,1.861397,4.5668,43690,0.0,1018.42,0.0,3.744,1016.619,0,195.153751343,1.514,201.5764,3.6456,3.58218823529,1.80078
2023-04-01T06:29:10Z,13.59355,1.412151,0.0,57.94307,0,1156,3.8024,1.820732,4.4688,43690,0.0,1018.42,0.0,3.998,1016.619,0,193.044112337,1.514,193.5512,3.4496,3.42232046784,1.80078
2023-04-01T06:44:08Z,13.59355,1.310356,0.0,56.14406,0,1156,3.822,1.777805,4.8216,43690,0.0,1018.42,0.0,4.782,1016.619,0,194.248945453,1.48,194.2744,3.8612,3.83641176471,1.80078
2023-04-01T06:59:07Z,13.59355,1.311054,0.0,57.87621,0,1156,3.9788,1.734879,4.9392,43690,0.0,1018.42,0.0,4.488,1016.619,0,194.311739132,1.344,198.1579,4.116,4.05962117647,1.80078
2023-04-01T07:14:11Z,13.59392,1.243153,0.0,58.14776,0,1156,3.4692,1.691956,4.8216,43690,0.0,1017.867,0.0,4.214,1016.066,0,204.573086971,1.311,198.1579,3.6848,3.73637894737,1.80078
2023-04-01T07:29:10Z,13.594,1.174938,0.0,58.58858,0,1156,4.4884,1.671619,5.0372,43690,0.0,1017.867,0.0,4.88,1016.066,0,200.28063264,1.311,198.7348,4.1062,4.09836,1.80078
2023-04-01T07:44:09Z,13.59391,1.312614,0.0,64.93922,0,1156,4.6452,1.671619,5.88,43690,0.0,1017.867,0.0,5.174,1016.066,0,207.069846166,1.245,216.0249,4.6648,4.66353176471,1.80078
2023-04-01T07:59:13Z,13.59392,0.937313,0.0,69.82426,0,1156,5.5076,1.691956,7.212799,43690,0.0,1017.867,0.0,6.742,1016.066,0,213.78015585,1.107,226.8361,5.7624,5.75403271345,1.80078
2023-04-01T08:14:11Z,13.60026,0.531105,0.0,78.58418,0,1156,5.782,1.649029,7.271599,43690,0.0,1018.098,0.0,7.174,1016.297,0,215.033107992,0.565,221.2027,5.88,5.94479525882,1.80078
2023-04-01T08:29:09Z,13.60536,-0.0813179,0.0,85.3703,0,1156,3.7436,1.479584,6.5072,43690,0.0,1018.098,0.0,5.351,1016.297,0,213.703860474,-0.013,219.0018,5.1254,5.15526117059,1.80078
2023-04-01T08:44:13Z,13.61643,-0.2842751,0.0,88.25717,0,1156,3.7828,1.267216,4.508,43690,0.0,1018.098,0.0,4.136,1016.297,0,217.902099645,-0.149,208.4013,3.724,3.6780374269,1.80078
2023-04-01T08:59:12Z,13.62318,-0.3453903,0.0,89.18893,0,1156,3.0576,1.052586,4.4296,43690,0.0,1018.098,0.0,3.724,1016.297,0,209.447322147,-0.244,206.4603,3.6456,3.59982823529,1.80078
2023-04-01T09:14:10Z,13.63058,-0.340313,0.0,89.91341,0,1156,3.7044,0.9034767,4.3708,43690,0.0,1017.874,0.0,4.116,1016.073,0,195.251243643,-0.374,188.3574,3.1752,3.27285411765,1.80078
2023-04-01T09:29:14Z,13.63113,-0.4418488,0.0,90.59326,0,1156,3.4888,0.7769585,4.3904,43690,0.0,1017.874,0.0,3.312,1016.073,0,191.671365204,-0.34,191.0109,3.1948,3.24649356725,1.80078
2023-04-01T09:44:13Z,13.63133,-0.4074783,0.0,91.4431,0,1156,2.8616,0.6911049,3.8612,43690,0.0,1017.874,0.0,3.548,1016.073,0,192.128575437,-0.407,198.3901,2.9302,2.90299058824,1.80078
2023-04-01T09:59:11Z,13.63133,-0.5432968,0.001449155,91.74872,0,1156,0.6272,0.6481819,3.1948,43690,0.1014409,1017.874,7.245775e-06,1.215,1016.073,0,166.748607383,-0.407,55.1365,1.4112,1.54079058294,1.80078
2023-04-01T10:14:16Z,13.63133,-0.5093422,0.005796643,91.74872,0,1156,0.0196,0.6075134,1.2544,43690,0.405765,1017.128,2.898321e-05,0.6860001,1015.328,0,41.8190326491,-0.441,56.60712,0.0392,0.246891226316,1.80078
2023-04-01T10:29:14Z,13.63133,-0.5432968,0.0130425,91.57894,0,1156,2.1756,0.5645866,2.8224,43690,0.912975,1017.128,6.52125e-05,2.528,1015.328,0,81.8890760379,-0.441,79.29337,1.2838,1.37937881706,1.80078
2023-04-01T10:44:14Z,13.63133,-0.5093422,0.02077212,90.96773,0,1156,2.9204,0.5849228,3.136,43690,1.454048,1017.128,0.0001038606,2.94,1015.328,0,88.0300337803,-0.374,89.63598,1.9992,1.91272940941,1.80078
2023-04-01T10:59:13Z,13.63133,-0.3395615,0.02753445,90.42444,0,1156,2.9988,0.6075134,3.8024,43690,1.927411,1017.128,0.0001376723,3.802,1015.328,0,84.7626429687,-0.238,89.61187,2.5284,2.48793176471,1.80078
2023-04-01T11:14:12Z,13.63133,-0.3395615,0.03284753,90.4584,0,1156,2.8224,0.6707726,4.6256,43690,2.299327,1016.151,0.0001642376,4.626,1014.35,0,88.1379358278,-0.272,76.5932,3.1556,3.16028427673,1.80078
2023-04-01T11:29:18Z,13.63133,-0.3056068,0.03381378,89.6095,0,1156,3.1164,0.7340317,4.4688,43690,2.366965,1016.151,0.0001690689,3.214,1014.35,0,90.9823176543,-0.272,114.2027,3.0772,3.09347602339,1.80078
2023-04-01T11:44:17Z,13.63133,-0.3395615,0.04105586,89.50763,0,1156,1.8424,0.7769585,4.4492,43690,2.87391,1016.151,0.0002052793,3.763,1014.35,0,93.3293741374,-0.238,113.5277,2.989,2.99681518987,1.80078
2023-04-01T11:59:16Z,13.62581,-0.3735199,0.04588482,89.50763,0,1156,3.1556,0.8402176,4.6844,43690,3.211937,1016.151,0.0002294241,3.528,1014.35,0,100.741594559,-0.238,121.0737,2.94,2.97747058824,1.80078
2023-04-01T12:14:17Z,13.62581,-0.1360474,0.04105456,89.50714,0,1156,1.2936,0.9034767,4.2532,43690,2.87382,1014.602,0.0002052728,3.842,1012.801,0,105.862782181,-0.102,91.44362,2.8812,2.81836470588,1.80078
2023-04-01T12:29:17Z,13.62579,-0.0004730224,0.08162566,88.42001,0,1156,3.3516,0.9689942,5.4096,43690,5.713796,1014.602,0.0004081283,3.783,1012.801,0,102.711160384,0.101,109.235,3.0184,3.03961411765,1.80078
2023-04-01T12:44:18Z,13.61976,0.2023849,0.03525842,88.28226,0,1156,1.7836,1.07518,4.9392,43690,2.46809,1014.602,0.0001762921,4.508,1012.801,0,108.495054992,0.237,111.2336,2.9498,2.88731058824,1.80078
2023-04-01T12:59:19Z,13.61857,0.1995506,0.04588425,87.76675,0,1156,3.1752,1.138439,5.6252,43690,3.211897,1014.602,0.0002294212,5.625,1012.801,0,105.75189724,0.403,140.129,3.43,3.43726352941,1.80078
2023-04-01T13:14:19Z,13.61263,0.3669739,0.09901338,89.05178,0,1156,2.646,1.181362,6.8208,43690,6.930936,1013.157,0.0004950668,5.272,1011.356,0,108.216279644,0.4,97.74476,3.185,3.27308470588,1.80078
2023-04-01T13:29:20Z,13.60644,0.3997917,0.06810188,90.06777,0,1156,1.6072,1.287548,6.958,43690,4.767132,1013.157,0.0003405094,6.958,1011.356,0,108.510681795,0.501,149.9756,3.5574,3.58899057647,1.80078
2023-04-01T13:44:21Z,13.60519,0.4644356,0.04491826,91.11288,0,1156,1.6856,1.350807,5.2724,43690,3.144279,1013.157,0.0002245913,3.959,1011.356,0,108.035509408,0.669,82.16419,3.038,3.11213411765,1.80078
2023-04-01T13:59:21Z,13.60545,0.5298195,0.0487822,91.54851,0,1156,3.7436,1.373402,5.4684,43690,3.414754,1013.157,0.000243911,5.468,1011.356,0,108.058660962,0.632,113.7068,3.528,3.50171294118,1.80078
2023-04-01T14:14:21Z,13.61043,0.5977478,0.04395228,92.36327,0,1156,3.9984,1.373402,5.5076,43690,3.07666,1011.172,0.0002197614,5.116,1009.372,0,107.716641027,0.632,95.39045,3.43,3.47634823529,1.80078
2023-04-01T14:29:21Z,13.6158,0.6332283,0.06327196,92.9099,0,1156,3.5672,1.350807,5.5664,43690,4.429038,1011.172,0.0003163598,5.468,1009.372,0,103.144943062,0.667,103.8055,3.626,3.60536235294,1.80078
2023-04-01T14:44:21Z,13.61015,0.7688637,0.07727874,93.35086,0,1156,2.9008,1.373402,5.8212,43690,5.409512,1011.172,0.0003863937,4.096,1009.372,0,105.120411749,0.803,128.8948,3.2634,3.24875764706,1.80078
2023-04-01T14:59:20Z,13.60516,0.7675896,0.05747606,93.65343,0,1156,1.8816,1.456993,6.1544,43690,4.023324,1011.172,0.0002873803,5.429,1009.372,0,106.084572379,0.9030001,114.4303,3.8416,3.70048,1.80078
2023-04-01T15:14:21Z,13.60492,0.8703422,0.05844204,93.79133,0,1156,5.292,1.565437,6.762,43690,4.090943,1008.656,0.0002922102,5.41,1006.855,0,106.255887998,0.9040001,119.3978,2.8224,3.00352705824,1.80078
2023-04-01T15:29:20Z,13.59949,0.9714851,0.09611542,93.92552,0,1156,5.9388,1.691956,7.663599,43690,6.72808,1008.656,0.0004805771,5.821,1006.855,0,107.85175176,1.073,102.1877,4.1552,4.17860468824,1.80078
2023-04-01T15:44:19Z,13.59385,0.9716072,0.1077072,94.02763,0,1156,5.7624,1.798138,8.7612,43690,7.539506,1008.656,0.0005385362,6.311,1006.855,0,107.946628078,1.107,110.6475,4.6158,4.65649881118,1.80078
2023-04-01T15:59:19Z,13.58808,1.140553,0.07341479,94.12769,0,1156,5.782,1.904324,8.7024,43690,5.139036,1008.656,0.000367074,6.88,1006.855,0,108.268532072,1.141,117.2489,4.606,4.79681174118,1.80078
2023-04-01T16:14:19Z,13.59355,1.140549,0.06133999,94.29739,0,1156,4.998,1.94725,7.84,43690,4.2938,1006.445,0.0003066999,6.978,1004.644,0,111.592215609,1.141,78.25427,4.2042,4.21999527529,1.80078
2023-04-01T16:29:20Z,13.58831,1.174507,0.06327196,94.50109,0,1156,3.5084,1.990173,7.310799,43690,4.429038,1006.445,0.0003163598,6.644,1004.644,0,110.228561518,1.242,108.0184,4.4982,4.50062116471,1.80078
2023-04-01T16:44:20Z,13.58802,1.140549,0.06568692,94.70473,0,1156,2.7244,2.076027,7.056,43690,4.598084,1006.445,0.0003284346,5.919,1004.644,0,106.223564297,1.242,109.2716,3.92,3.91285176471,1.80078
2023-04-01T16:59:21Z,13.58249,1.412102,0.08065967,94.80656,0,1156,4.1944,2.182213,7.4088,43690,5.646177,1006.445,0.0004032984,6.507,1004.644,0,108.567905444,1.514,120.7434,3.6456,3.80666588176,1.80078
2023-04-01T17:14:22Z,13.58249,1.513935,0.1014283,94.90839,0,1156,1.7052,2.288395,8.0948,43690,7.099984,1002.127,0.0005071417,8.09,1000.326,0,107.788248899,1.48,82.11035,3.8416,3.93487292882,1.80078
2023-04-01T17:29:22Z,13.57696,1.446045,0.08597259,94.8405,0,1156,4.508,2.394581,10.0156,43690,6.018081,1002.127,0.0004298629,5.802,1000.326,0,105.14343787,1.65,74.5669,4.41,4.51364938235,1.80078
2023-04-01T17:44:22Z,13.57143,1.547878,0.08162566,94.77262,0,1156,4.6256,2.480434,6.958,43690,5.713796,1002.127,0.0004081283,6.958,1000.326,0,103.586503314,1.752,101.6317,3.8024,3.84621175882,1.80078
2023-04-01T17:59:21Z,13.57696,1.785488,0.07244882,94.73867,0,1156,4.9588,2.566284,7.310799,43690,5.071417,1002.127,0.000362244,5.782,1000.326,0,106.296404282,1.853,117.0079,3.5084,3.64375528765,1.80078
2023-04-01T18:14:22Z,13.57143,1.785488,0.03767338,94.67078,0,1156,3.6064,2.629543,6.958,43690,2.637137,999.8458,0.0001883669,6.958,998.045,0,111.182472256,1.819,67.31266,3.5868,3.56074352882,1.80078
2023-04-01T18:29:22Z,13.57143,1.853378,0.0294607,94.70473,0,1156,5.096,2.629543,9.1532,43690,2.062249,999.8458,0.0001473035,8.08,998.045,0,107.600010084,1.955,76.76004,4.4492,4.55215762941,1.80078
2023-04-01T18:44:23Z,13.57696,1.853378,0.03670656,94.77262,0,1156,3.4888,2.652134,8.6044,43690,2.569459,999.8458,0.0001835328,6.88,998.045,0,110.176954141,1.887,103.5116,4.606,4.67655996471,1.80078
2023-04-01T18:59:24Z,13.57143,1.989155,0.07148253,95.07811,0,1156,6.2916,2.715393,7.7028,43690,5.003776,999.8458,0.0003574126,6.821,998.045,0,107.867115766,1.989,113.0795,4.5668,4.64831292353,1.80078
2023-04-01T19:14:21Z,13.56591,2.158878,0.03380793,95.31573,0,1156,3.5476,2.821579,8.5652,43690,2.366555,996.5871,0.0001690397,6.997,994.7863,0,108.012508549,2.193,105.8252,5.0176,4.97492656962,1.80078
2023-04-01T19:29:27Z,13.57143,2.192822,0.02317924,95.51938,0,1156,5.194,2.887096,9.329599,43690,1.622547,996.5871,0.0001158962,8.229999,994.7863,0,107.553836377,2.261,112.1155,4.8804,5.01920460234,1.80078
2023-04-01T19:44:27Z,13.56591,2.090988,0.02414627,95.72306,0,1156,3.9396,2.930023,8.5848,43690,1.690239,996.5871,0.0001207314,8.059999,994.7863,0,104.708101182,2.125,128.4556,4.7824,4.89066115882,1.80078
2023-04-01T19:59:26Z,13.56038,2.090988,0.02752403,95.92672,0,1156,6.468,2.950356,7.663599,43690,1.926682,996.5871,0.0001376201,7.507001,994.7863,0,108.067704355,2.261,114.6219,4.4884,4.47099057,1.80078
2023-04-01T20:14:26Z,13.56038,2.192822,0.02124753,96.09644,0,1156,4.0572,2.993282,11.172,43690,1.487327,994.7134,0.0001062376,8.88,992.9126,0,107.463351442,2.329,99.8965,5.2234,5.21821170588,1.80078
2023-04-01T20:29:26Z,13.56591,2.192822,0.03186873,96.23222,0,1156,6.9384,3.036209,10.2116,43690,2.230811,994.7134,0.0001593437,10.07,992.9126,0,109.763389678,2.261,115.7787,6.2524,6.34728698235,1.80078
2023-04-01T20:44:25Z,13.56038,2.430431,0.02945455,96.30011,0,1156,7.663599,3.079136,11.466,43690,2.061818,994.7134,0.0001472727,8.55,992.9126,0,102.465989827,2.43,100.8846,6.6738,6.74943275294,1.80078
2023-04-01T20:59:24Z,13.56038,2.362545,0.02172788,96.43589,0,1156,6.86,3.122059,9.702,43690,1.520952,994.7134,0.0001086394,8.57,992.9126,0,101.422311527,2.329,106.4759,6.1544,6.24963284118,1.80078
2023-04-01T21:14:24Z,13.56038,2.430431,0.02800448,96.46983,0,1156,7.016799,3.142391,9.6824,43690,1.960313,992.1065,0.0001400224,6.997,990.3057,0,102.793026512,2.43,95.79942,5.684,5.56340228235,1.80078
2023-04-01T21:29:25Z,13.56038,2.362545,0.02414158,96.53772,0,1156,2.9008,3.185318,8.6044,43690,1.689911,992.1065,0.0001207079,8.53,990.3057,0,101.397003719,2.43,99.3663,5.4096,5.52374111176,1.80078
2023-04-01T21:44:25Z,13.56038,2.396488,0.02027883,96.50378,0,1156,6.389599,3.20565,9.505999,43690,1.419518,992.1065,0.0001013942,8.269999,990.3057,0,103.577517317,2.464,97.02855,5.8114,5.89936935882,1.80078
2023-04-01T21:59:25Z,13.56038,2.362545,0.009656743,96.53772,0,1156,7.3892,3.20565,9.505999,43690,0.675972,992.1065,4.828371e-05,9.15,990.3057,0,102.086526535,2.43,108.7896,6.5856,6.64278575882,1.80078
2023-04-01T22:14:26Z,13.56038,2.498211,0.01110526,96.57141,0,1156,7.4284,3.228245,8.937599,43690,0.7773681,990.0698,5.552629e-05,8.15,988.269,0,102.520379047,2.498,96.47398,6.3014,6.20755047059,1.80078
2023-04-01T22:29:27Z,13.56038,2.498287,0.003379808,96.60554,0,1156,6.6836,3.228245,8.526,43690,0.2365865,990.0698,1.689904e-05,6.605,988.269,0,97.5070909263,2.532,98.59502,5.6056,5.61378583529,1.80078
2023-04-01T22:44:28Z,13.55485,2.701954,0.0004828341,96.67342,0,1156,5.88,3.271172,7.467599,43690,0.03379838,990.0698,2.414171e-06,7.213,988.269,0,97.0570245048,2.668,95.60655,6.0956,6.06758349412,1.80078
2023-04-01T22:59:30Z,13.55409,2.53207,0.0,96.6391,0,1156,5.8996,3.334431,6.5856,43690,0.0,990.0698,0.0,6.233,988.269,0,96.0033928623,2.668,92.47314,5.5664,5.48523293529,1.80078
2023-04-01T23:14:27Z,13.5547,2.633915,0.0,96.80886,0,1156,4.9588,3.399948,6.958,43690,0.0,990.5485,0.0,6.35,988.7477,0,97.8073240449,2.77,87.50849,5.3704,5.37190769231,1.80078
2023-04-01T23:29:28Z,13.55484,2.768158,0.0,96.80539,0,1156,4.0964,3.442875,5.8212,43690,0.0,990.5485,0.0,5.096,988.7477,0,95.1868051859,2.802,96.56677,4.8608,4.82667294118,1.80078
2023-04-01T23:44:30Z,13.54851,2.73476,0.0,96.8745,0,1156,6.4288,3.485798,8.2712,43690,0.0,990.5485,0.0,6.958,988.7477,0,98.0572804174,2.768,94.32671,6.1054,6.0828023,1.80078
2023-04-01T23:59:27Z,13.54761,2.869774,0.0,96.94068,0,1156,4.8608,3.506134,6.5464,43690,0.0,990.5485,0.0,5.037,988.7477,0,98.1473412984,2.904,98.78342,4.998,4.89118579882,1.80078
2023-04-02T00:14:28Z,13.54211,2.933838,0.0,96.99993,0,1156,2.9596,3.612316,5.3312,43690,0.0,989.2293,0.0,4.018,987.4285,0,97.4830431946,3.002,75.15934,4.0278,4.12222588235,1.80078
2023-04-02T00:29:28Z,13.54166,2.933365,0.0,97.10067,0,1156,2.1168,3.69817,4.0572,43690,0.0,989.2293,0.0,3.528,987.4285,0,96.7274714329,3.002,114.9426,3.4496,3.38999294118,1.80078
2023-04-02T00:44:29Z,13.53597,4.526501,0.0,97.4696,0,1156,1.8424,3.849537,2.3912,43690,0.0,989.2293,0.0,2.254,987.4285,0,159.262201485,4.56,208.3331,1.2152,1.20782116765,1.80078
2023-04-02T00:59:29Z,13.51939,4.900711,0.0,97.57335,0,1156,3.0184,4.23587,4.3316,43690,0.0,989.2293,0.0,3.998,987.4285,0,216.36961582,4.935,221.9999,3.0772,3.07155058824,1.80078
2023-04-02T01:14:30Z,13.51333,4.558323,0.0,97.56678,0,1156,4.7432,4.579277,5.9388,43690,0.0,990.8011,0.0,5.802,989.0004,0,231.428292775,4.728,237.6224,3.773,4.03564,1.80078
2023-04-02T01:29:31Z,13.50609,4.961189,0.0,97.6591,0,1156,3.4104,4.879757,6.0172,43690,0.0,990.8011,0.0,4.43,989.0004,0,250.955294035,5.097,253.9099,3.6848,3.84079294118,1.80078
2023-04-02T01:44:31Z,13.48946,4.791336,0.0,97.69262,0,1156,4.2336,5.116978,5.292,43690,0.0,990.8011,0.0,4.684,989.0004,0,257.013069774,4.825,251.5478,3.3418,3.36751058824,1.80078
2023-04-02T01:59:32Z,13.49499,4.587742,0.0,97.72655,0,1156,2.94,5.245754,5.096,43690,0.0,990.8011,0.0,3.802,989.0004,0,249.703438853,4.656,249.3313,3.8808,3.79363764706,1.80078
2023-04-02T02:14:33Z,13.49499,4.316276,0.0,97.72655,0,1156,2.7048,5.290939,4.0376,43690,0.0,989.7413,0.0,3.293,987.9405,0,245.208757857,4.452,244.6333,2.8028,2.84984,1.80078
2023-04-02T02:29:32Z,13.50052,4.418076,0.0,97.79442,0,1156,3.8024,5.290939,4.1748,43690,0.0,989.7413,0.0,3.979,987.9405,0,241.406361138,4.554,240.4894,3.136,3.17393176471,1.80078
2023-04-02T02:44:33Z,13.50052,4.553806,0.0,97.86228,0,1156,3.3712,5.311276,5.4096,43690,0.0,989.7413,0.0,4.665,987.9405,0,249.20012463,4.588,231.3825,3.871,3.90524235294,1.80078
2023-04-02T02:59:32Z,13.50052,4.248413,0.0,97.89622,0,1156,3.6652,5.290939,5.0568,43690,0.0,989.7413,0.0,4.763,987.9405,0,241.358114596,4.248,248.3435,3.8024,3.79409882353,1.80078
2023-04-02T03:14:31Z,13.50052,4.112682,0.0,97.89622,0,1156,4.5276,5.202831,5.8996,43690,0.0,989.5784,0.0,5.468,987.7776,0,241.357865837,4.282,238.9716,3.9004,3.96692470588,1.80078
2023-04-02T03:29:31Z,13.50052,3.875149,0.0,97.93015,0,1156,3.3712,5.096645,5.3116,43690,0.0,989.5784,0.0,4.528,987.7776,0,231.646866157,3.909,234.2977,4.5668,4.53324941176,1.80078
2023-04-02T03:44:30Z,13.50052,4.044815,0.0,98.03195,0,1156,4.4296,5.008534,5.1352,43690,0.0,989.5784,0.0,5.135,987.7776,0,225.459099999,4.147,231.9608,4.0572,4.06112,1.80078
2023-04-02T03:59:36Z,13.50052,4.112682,0.0,98.03195,0,1156,3.8808,4.965607,5.6448,43690,0.0,989.5784,0.0,4.469,987.7776,0,222.319215685,4.181,222.5166,3.9984,3.99576374269,1.80078
2023-04-02T04:14:35Z,13.50052,4.044815,0.0,98.06588,0,1156,4.9588,4.945274,5.7428,43690,0.0,988.764,0.0,4.88,986.9633,0,228.753037084,4.113,233.864,4.5864,4.55849882353,1.80078
2023-04-02T04:29:35Z,13.50052,4.146614,0.0,98.13375,0,1156,4.3904,4.945274,5.6448,43690,0.0,988.764,0.0,4.39,986.9633,0,236.833008192,4.214,245.4043,4.116,4.15854352941,1.80078
2023-04-02T04:44:35Z,13.50052,4.282345,0.0,98.20162,0,1156,4.8804,4.965607,5.5468,43690,0.0,988.764,0.0,5.547,986.9633,0,244.501207073,4.282,243.1637,3.871,3.88402823529,1.80078
2023-04-02T04:59:34Z,13.50052,4.112682,0.0,98.20162,0,1156,3.3516,5.008534,5.3508,43690,0.0,988.764,0.0,4.39,986.9633,0,245.727663628,4.282,245.4043,3.9102,3.89947764706,1.80078
2023-04-02T05:14:34Z,13.50052,3.976948,0.0,98.20162,0,1156,3.1948,5.008534,4.0376,43690,0.0,989.4155,0.0,3.332,987.6147,0,246.792086226,4.045,244.2478,3.1948,3.20609882353,1.80078
2023-04-02T05:29:33Z,13.50604,3.976948,0.0,98.23555,0,1156,2.646,4.988201,3.9004,43690,0.0,989.4155,0.0,3.018,987.6147,0,239.951531698,4.079,224.9017,2.989,3.00617882353,1.80078
2023-04-02T05:44:38Z,13.50604,4.146614,0.0,98.26948,0,1156,1.9992,4.965607,3.136,43690,0.0,989.4155,0.0,2.156,987.6147,0,235.216171525,4.214,221.6492,2.2736,2.29274152047,1.80078
2023-04-02T05:59:36Z,13.50604,4.418076,0.0,98.40522,0,1156,2.352,4.988201,3.234,43690,0.0,989.4155,0.0,3.234,987.6147,0,212.121886868,4.384,235.936,2.3716,2.35073176471,1.80078
2023-04-02T06:14:34Z,13.50604,4.384144,0.0,98.40522,0,1156,3.1556,5.008534,4.214,43690,0.0,988.031,0.0,3.998,986.2303,0,233.285939371,4.452,241.7663,2.9204,2.90149176471,1.80078
2023-04-02T06:29:38Z,13.50052,4.146614,0.0,98.40522,0,1156,3.7436,5.074051,4.8804,43690,0.0,988.031,0.0,4.136,986.2303,0,240.501639207,4.282,241.5495,3.0968,3.0184,1.80078
2023-04-02T06:44:36Z,13.50052,3.773354,0.0,98.33734,0,1156,4.1748,5.05146,4.9392,43690,0.0,988.031,0.0,4.782,986.2303,0,238.355307959,3.875,242.7541,3.9592,3.93395058824,1.80078
2023-04-02T06:59:35Z,13.50052,3.807285,0.0,98.33734,0,1156,4.9784,4.988201,5.8212,43690,0.0,988.031,0.0,4.92,986.2303,0,242.672787072,3.875,242.5373,4.704,4.69339294118,1.80078
2023-04-02T07:14:39Z,13.50604,3.807285,0.0,98.40522,0,1156,5.4488,4.902348,6.0172,43690,0.0,989.4155,0.0,5.821,987.6147,0,248.23113858,3.841,253.427,4.8216,4.78217076023,1.80078
2023-04-02T07:29:38Z,13.50604,3.569756,0.0,98.37128,0,1156,4.7432,4.816498,6.3504,43690,0.0,989.4155,0.0,6.292,987.6147,0,247.197015859,3.672,243.4769,5.3214,5.26386823529,1.80078